Flag for India Weather past 2 weeks in Navi Mumbai, Maharashtra, India

Now
91 °F

Passing clouds.


Feels Like: 100 °F
Forecast: 74 / 102 °F
Wind: 9 mph from Northwest

Location: Bombay / Santacruz

Current Time: Oct 21, 2014 at 5:31:01 PM

Latest Report: Oct 21, 2014 at 4:40 PM


Visibility: 2 mi

Pressure: 29.83 "Hg

Humidity: 56%

Dew point: 73 °F

Location of Navi MumbaiLocation

Historic Weather in Navi Mumbai — Graph

°F

Navi Mumbai temperature yesterday

Maximum temperature yesterday: 97 °F (at 12:40 PM)
Minimum temperature yesterday: 82 °F (at 6:10 AM)
Average temperature yesterday: 88 °F

Past Weeks' High & Low Weather Summary

 TemperatureHumidityPressure
High99 °F (Oct 11, 1:10 PM)94% (Oct 10, 5:10 AM)29.95 "Hg (Oct 10, 5:10 AM)
Low77 °F (Oct 7, 6:40 PM)29% (Oct 12, 1:10 PM)29.65 "Hg (Oct 11, 4:10 PM)
Average87 °F67%29.79 "Hg
* Reported Oct 6 3:40 PM — Oct 21 4:10 PM, Navi Mumbai, Weather by CustomWeather, © 2014

Note: Actual official high and low records may vary slightly from our data, if they occured in-between our weather recording intervals... More about our weather records

Advertising

Navi Mumbai weather history for previous 24 hours

 ConditionsComfort  
Time TempWeatherWind HumidityBarometerVisibility
4:10 PM
Oct 21
91 °FPassing clouds.9 mph52%29.83 "Hg2 mi
3:40 PM91 °FPassing clouds.9 mph52%29.83 "Hg2 mi
3:10 PM93 °FClear.8 mph49%29.83 "Hg2 mi
2:40 PM93 °FClear.12 mph49%29.83 "Hg2 mi
2:10 PM95 °FClear.8 mph50%29.83 "Hg2 mi
1:40 PM95 °FClear.8 mph47%29.86 "Hg2 mi
1:10 PM97 °FPassing clouds.8 mph37%29.86 "Hg2 mi
12:40 PM95 °FPassing clouds.6 mph39%29.89 "Hg2 mi
12:10 PM95 °FPassing clouds.8 mph39%29.89 "Hg2 mi
11:40 AM95 °FPassing clouds.8 mph39%29.92 "Hg2 mi
11:10 AM93 °FHaze.6 mph41%29.92 "Hg2 mi
10:40 AM93 °FHaze.13 mph41%29.95 "Hg2 mi
10:10 AM91 °FHaze.8 mph46%29.95 "Hg2 mi
9:40 AM90 °FHaze.6 mph55%29.92 "Hg2 mi
9:10 AM88 °FHaze.7 mph59%29.92 "Hg2 mi
8:40 AM86 °FHaze.5 mph66%29.92 "Hg2 mi
8:10 AM86 °FHaze.7 mph66%29.89 "Hg2 mi
7:40 AM84 °FHaze.3 mph70%29.89 "Hg2 mi
7:10 AM84 °FHaze.5 mph70%29.86 "Hg2 mi
6:10 AM84 °FHaze.5 mph70%29.86 "Hg1 mi
5:40 AM82 °FHaze.No wind74%29.83 "Hg1 mi
5:10 AM82 °FHaze.6 mph74%29.83 "Hg1 mi
4:40 AM84 °FHaze.7 mph74%29.83 "Hg1 mi
4:10 AM82 °FHaze.9 mph79%29.83 "Hg1 mi
3:40 AM82 °FHaze.8 mph79%29.83 "Hg1 mi
3:10 AM84 °FHaze.5 mph74%29.83 "Hg1 mi
2:40 AM84 °FHaze.5 mph74%29.83 "Hg1 mi
2:10 AM84 °FHaze.3 mph74%29.83 "Hg1 mi
1:40 AM84 °FHaze.5 mph70%29.86 "Hg1 mi
1:10 AM86 °FHaze.3 mph70%29.86 "Hg1 mi
12:40 AM86 °FHaze.5 mph66%29.86 "Hg1 mi
12:10 AM86 °FHaze.3 mph70%29.86 "Hg1 mi
11:40 PM
Oct 20
86 °FHaze.5 mph70%29.89 "Hg1 mi
11:10 PM88 °FHaze.5 mph66%29.89 "Hg1 mi
10:40 PM86 °FPassing clouds.5 mph75%29.89 "Hg1 mi
10:10 PM86 °FPassing clouds.6 mph66%29.89 "Hg1 mi
9:10 PM88 °FThunderstorms. Passing clouds.10 mph62%29.89 "Hg2 mi
8:10 PM90 °FHaze.3 mph63%29.86 "Hg2 mi
7:40 PM90 °FHaze.7 mph67%29.86 "Hg2 mi
7:10 PM90 °FPassing clouds.8 mph63%29.83 "Hg2 mi
6:40 PM90 °FPassing clouds.7 mph63%29.83 "Hg2 mi
6:10 PM90 °FPassing clouds.8 mph63%29.83 "Hg2 mi
5:40 PM91 °FPassing clouds.10 mph56%29.80 "Hg2 mi
Weather by CustomWeather, © 2014

See weather overviewHow to use our weather pages